Simultaneous Nadir Overpasses (SNOs) Predictions

Prediction of SNOs between GOES-16 and NOAA-20 Satellite Orbit:

Table of predicted SNOs for the next 14.0 days since TLE Epoch: 11/9/2019
Index Date Time (GOES-16) GOES-16 Lat,Lon NOAA-20 Lat,Lon Distance(km) Time Diff (sec)
1 11/09/2019 06:44:28 -0.00, -75.20 0.98, -79.47 487.99 80
2 11/10/2019 06:23:03 -0.00, -75.20 -0.04, -74.94 28.76 80
3 11/12/2019 18:26:15 0.00, -75.21 -0.13, -75.72 58.24 80
4 11/13/2019 18:10:10 0.00, -75.21 0.89, -71.19 458.79 80
5 11/15/2019 06:31:59 -0.00, -75.22 0.27, -76.46 140.70 80
6 11/16/2019 06:10:34 -0.00, -75.23 -0.75, -71.93 376.31 80
7 11/17/2019 18:32:31 -0.00, -75.24 -0.44, -77.23 227.14 80
8 11/18/2019 18:16:26 -0.00, -75.25 0.58, -72.70 290.19 80
9 11/20/2019 06:38:13 0.00, -75.26 0.63, -77.96 308.61 80
10 11/21/2019 06:16:49 0.00, -75.27 -0.39, -73.43 209.00 80
11 11/22/2019 18:38:45 0.00, -75.29 -0.80, -78.74 393.53 80




NCC Satellite Simultaneous Nadir Overpasses (SNOs) Prediction Service
